CAPE
1114 950 766 711 803 884 1353 1042 1056 1118 1660 1832 2001 1598 1879 1771 1486 2254 1988 1946 2511 2475 2440 2089 1954 2176 2144 1293 1558 1524 2041 1838 1506 1177 1019 744 1718 2661 3706 3161 3529 3483 3396 3287 3227 3370 3349 3137 3726 3963 3836 3911 3945 4036 3621 2655 2917 3050 4054 3806 2912 2827 2543 3106 2257 1051 1570 1142 1153 1022 898 664 18 2 11 85 94 118 116 332 135 28 0 0 210
1189 1092 963 862 851 844 950 1103 1428 1239 1890 1764 1778 1642 1772 1399 1485 1989 1960 2076 2388 2415 2457 2336 2143 2059 1991 1632 1229 1322 1921 1943 1669 1608 1176 815 3098 3004 3409 2945 3352 3398 3324 3238 3430 3343 3290 3055 4075 4010 4138 4089 4191 3687 3786 3700 3331 3032 3299 4093 3568 2501 3422 2445 1429 1260 1494 1293 873 881 455 443 861 10 1 28 9 46 39 250 241 61 0 0 0
1084 1051 1162 1028 941 1052 1007 1097 1332 1361 1328 1315 1873 1820 1953 1875 1718 1939 1980 2018 2302 2339 2596 2390 2052 2048 1784 1728 1454 1360 1466 1528 1344 1368 1585 888 2100 2896 3072 3448 3413 3355 3249 3255 3297 3321 3323 3282 4375 4226 4150 4150 4109 4201 4103 3907 4548 3580 3399 3511 2942 3326 2901 1974 1894 1464 1430 1290 1940 1580 228 11 16 181 82 36 6 25 12 6 4 5 0 61 32
1206 1181 1123 1075 1051 1074 1020 1289 1586 990 1618 1380 1395 1984 1878 2150 2176 2253 2169 1980 2180 2317 2500 2198 2143 2410 2312 2135 1657 1347 1490 1585 1876 2091 1991 1521 1228 2289 3378 3595 3398 3067 2924 2902 2996 3194 3521 3731 4111 4076 4341 3931 4769 4059 4376 3963 4370 4034 3399 3540 3080 2660 2075 2165 1698 1759 1839 475 1093 458 360 161 1 65 100 85 4 11 13 2 30 10 58 60 17
1452 1292 1254 1170 1032 1013 1297 1634 1285 1166 1300 1355 1444 1615 1629 2024 2573 2423 2457 2157 2185 2326 2346 2221 2449 2439 2420 2445 2195 2343 2411 1915 1756 1876 1952 1976 1390 2064 2717 3305 3328 2928 2838 2856 2748 3258 3499 4350 4189 4134 4462 4515 4185 4462 4132 3804 4417 3450 3557 3299 3020 2501 1855 2053 1688 1123 480 1787 2527 993 747 442 242 117 0 548 271 3 0 0 35 0 69 450 0
1656 1478 1253 1026 1039 1356 1627 1730 1400 1357 1567 1704 1646 1770 1945 2242 2686 2587 2755 2499 2341 2495 2389 2354 2356 2348 2412 2487 2309 2227 2701 2168 2117 1909 1668 1741 882 1266 2405 2664 2593 2698 3011 2939 2651 2962 3691 4295 3992 4461 3759 4152 4146 4120 3999 4690 3876 3309 3282 3377 2886 2479 2122 1834 1463 1752 1056 2268 1083 1358 515 1505 1506 0 15 467 813 41 13 0 26 0 0 804 272
1226 1370 1080 1260 1508 1433 1659 1805 1557 1498 1419 1613 1787 2112 2514 2476 2798 2820 2835 2759 2542 2592 2462 2535 2466 2528 2542 2281 2330 2268 2444 2184 2325 1883 1812 1996 1522 1503 2682 2885 3190 2740 2449 2956 2750 2968 3688 4499 4374 4239 4294 4338 4018 4250 4267 3718 3084 3510 3259 3301 2985 3404 2655 2362 2410 778 1072 738 390 134 733 1331 625 322 1086 56 516 724 998 0 5 3 0 10 82
1417 1293 1145 1291 1402 1052 1340 1768 1725 1756 1670 1784 1928 2134 2831 2812 2959 2983 2930 2900 2700 2761 2463 2650 2618 2648 2683 2328 2508 2492 1845 2288 2578 2560 2477 2686 2218 1902 2272 2849 3289 3119 2369 2622 3021 3110 3764 4603 4442 4164 4053 4004 3940 4281 4176 3586 3247 3294 3608 3421 3142 3141 2685 2691 1899 1065 1260 498 124 341 335 1110 400 528 705 680 308 637 378 262 0 7 17 1 2
1161 1358 1171 1035 1625 1652 1814 1999 1887 1774 1822 1911 2312 2780 2976 3020 3224 3102 3079 3067 2998 3180 2503 2799 2817 2876 2836 2687 2813 2830 2363 2392 2609 2735 2714 2902 2813 2371 2654 2633 3429 3305 2945 2678 3019 3055 3674 4803 4554 4235 4176 3805 4158 4249 4080 3675 3607 3759 3913 3402 3166 3254 3008 2857 2480 2880 1323 550 702 230 836 435 302 266 700 579 1243 572 34 13 369 13 9 78 88
1158 1290 1302 1420 1339 1374 1634 2251 2326 1898 1742 2424 2144 2536 2835 3053 3238 3226 3190 3122 3066 3312 2824 2796 3010 3013 3011 2820 2949 3059 2915 2663 2565 2889 3212 3006 3133 2940 2854 3387 3183 3278 3057 3138 3232 3214 3546 4355 4399 4137 4132 3555 3692 3522 3988 3789 3960 4020 3730 3409 3273 3152 2982 2621 2350 2210 1382 1292 1139 593 671 772 447 216 204 361 223 297 918 47 8 302 162 285 176
794 856 1227 1602 1157 838 1336 2008 2240 1548 1810 1991 2133 2302 2370 2855 3285 3265 3308 3172 3108 3265 3063 3000 2942 3014 3059 3103 3023 3034 3141 3114 2998 3497 3380 3476 3297 3204 2928 3977 3193 3119 2852 3023 3384 3158 3477 3855 3699 4068 4115 3992 4225 3952 3784 3370 3434 3698 3465 3634 3443 3409 3025 2898 1903 1272 2131 1732 865 1243 762 1279 1248 137 661 67 496 673 593 157 0 0 8 286 164
895 1229 1375 1288 1416 1740 1926 1824 1884 1811 1649 2304 2020 2259 3012 3123 3112 3328 3554 3333 3229 3187 3118 3037 2900 3033 3025 3160 3069 3144 3109 2781 3075 3262 3389 3308 3322 3252 3489 3356 3663 3467 3466 3240 2692 2315 3378 3886 3713 3732 4093 4092 4131 4216 3670 3168 3038 3172 3577 3943 3695 3429 3180 2676 1666 1430 1131 1395 1136 523 741 845 900 961 608 1574 1778 884 852 432 1507 319 712 245 742
746 1351 1199 881 1022 1749 1794 1647 2038 1758 2028 2580 2321 2466 3039 3467 3533 3588 3694 3569 3408 3106 3050 3074 2967 3110 3140 3123 3199 3325 3342 2879 2850 2949 3416 3312 3254 3299 3903 3690 3674 3703 3706 3361 2855 2690 3562 4004 3831 3723 4020 3962 4022 4098 3885 3712 3489 3186 3690 3415 3522 3386 3314 2942 2149 1680 1318 1110 692 525 187 200 755 706 591 139 724 909 1544 989 365 312 952 496 344
447 710 1118 1105 1187 1242 1466 1796 1875 2132 2353 2754 2403 2614 2970 3246 3596 3548 3755 3693 3486 3260 3187 3252 3180 3135 3179 3227 3342 3419 3451 3066 2855 2781 3117 3504 3612 3449 3191 3592 3849 3524 3364 3128 2809 2635 3081 3884 4015 3960 4124 4166 4247 4484 4141 3762 3898 3736 3779 3465 3231 3396 3184 2772 2153 1522 1727 1781 745 1036 324 33 380 41 96 554 764 800 901 801 1599 1054 110 344 622
1327 1369 1547 1654 1373 1348 1222 1360 1919 2535 2596 2362 2608 2855 3128 3248 3635 3815 3805 3632 3520 3499 3493 3359 3290 3143 3112 3279 3451 3660 3606 3196 2902 2755 2694 3398 3620 3593 3710 3376 3534 3469 3321 3320 3135 3073 2934 3615 3995 3868 3856 4272 4217 4420 4044 4036 4037 3882 4013 3525 3030 3675 3237 2653 2052 1558 1610 1502 1039 571 1020 379 486 749 4 132 304 305 624 568 868 498 299 250 412
1079 1302 1364 1514 1490 1436 1241 1336 2177 2960 2972 2747 2893 3168 3259 3460 3668 3729 3727 3584 3585 3672 3539 3544 3372 3127 3207 3265 3489 3713 3614 3327 3116 3047 3033 3164 3732 3864 4086 4085 3631 3731 3846 3729 3302 3270 3379 3469 3946 3829 3907 4065 4304 4417 4117 3692 4090 3997 4154 4023 3807 2986 3152 2840 2280 1576 1498 1684 1305 720 862 599 983 775 444 91 2 684 418 464 1129 1041 1116 295 610
1289 1162 977 1224 1706 1678 1764 1801 1984 2653 2476 2851 3127 3316 3432 3734 3924 3921 3914 3746 3691 3640 3772 3613 3567 3319 3378 3292 3427 3579 3691 3402 3080 3266 2500 2930 3429 4085 4284 4133 3898 4013 4078 3777 3521 3252 3561 3320 3648 3534 4056 3920 4118 4467 4298 4143 4268 4114 4129 4074 3560 2838 2989 2790 2126 1949 1700 1326 1298 1021 1112 1210 1739 1570 1260 820 85 1529 2061 1991 1562 1036 1310 1513 641
628 878 1278 1809 1855 1676 1862 1836 2348 2087 2395 2992 3374 3429 3578 3822 3903 4084 4220 4112 3828 3601 3694 3811 3663 3572 3501 3423 3315 3349 3301 3047 3028 3065 2839 2801 3062 3748 3791 4082 3725 3369 3511 3236 3240 3478 3383 3636 3359 3643 3950 3968 3783 3949 4404 4317 4399 4171 4092 4198 3755 3646 3294 3182 2487 2028 1888 1955 1407 1002 777 1076 1353 1485 1089 1070 1804 1140 1367 1607 1576 1359 1552 1046 1415
588 1337 1311 1132 1340 1857 1985 1767 2295 2026 3040 3273 3475 3334 3524 3768 3893 4042 4219 3897 3784 3436 3738 3959 3680 3415 3395 3384 3335 3470 3233 3163 3153 3253 3008 2895 2594 3187 3425 3619 3810 3435 3084 3318 3585 3524 3454 3568 3664 3750 4141 4109 4052 3971 4310 4222 4152 4106 3727 4252 3973 3976 3671 3340 2741 2350 2103 1919 1836 1138 1026 1048 1417 1247 1343 871 2318 1305 1379 1624 1335 1629 1369 1471 1372
217 544 1206 957 777 1510 2199 2001 1381 2125 3380 2895 2813 2744 3103 3597 4184 4165 4142 4252 4110 3850 4076 3903 3786 3581 3456 3388 3345 3292 3432 3431 3529 3788 3714 3212 3110 2821 3069 3110 3722 3596 3325 3261 3843 3268 3540 3436 3484 3378 3410 3846 3943 3659 4055 4130 4013 3930 3498 3448 3681 3937 3705 3441 2613 2088 1750 2062 1883 1645 1605 1503 1369 1263 1679 1422 2122 1402 1543 1496 1716 1441 1653 1399 1378
34 382 656 431 612 1008 1697 1849 1540 2078 2869 3159 2916 2863 2857 3234 4016 4197 4438 4321 4226 3871 3830 3858 3828 3715 3718 3517 3538 3604 3480 3686 3805 3774 3716 3518 3337 3177 3120 3225 3517 3644 3480 3105 3286 3340 3511 3609 3173 3108 3218 3451 3691 3548 3638 3836 3863 3772 3713 3632 3586 3803 3575 3371 2897 2218 1681 2123 1928 1578 1828 1755 1507 1374 1453 1657 1209 1827 1420 1533 1488 1795 1498 1420 1304
247 438 701 1124 1140 1055 1284 1609 1795 1936 2626 3161 3013 2849 2891 3269 3864 4191 4221 4250 4000 3736 3964 3804 3975 3622 3472 3453 3369 3457 3567 3596 3573 3455 3421 3595 3753 3624 3428 3566 3477 3684 3712 3305 3126 3089 3532 3816 3656 3650 3595 3644 3849 3839 3650 3767 3801 3801 3607 3609 3598 3724 3447 3179 2833 2569 2156 1996 2039 1656 1581 2047 1554 1656 1392 1271 1356 951 1346 1092 1291 1251 1236 1326 1339
12 349 314 539 829 619 528 831 1135 1753 2493 3148 3120 3049 3032 3156 3506 3971 4240 4342 4091 3887 3805 4084 3963 3727 3540 3542 3539 3536 3581 3479 3142 3130 2943 2858 3459 3693 3543 3648 3334 3203 3676 3557 3435 2931 3195 3829 3811 4102 4110 3772 3959 3868 3490 3480 3772 3787 3576 3169 3109 3581 3318 3052 2751 2545 2493 2209 2044 1773 1501 1743 1778 1632 1698 1429 1240 1160 993 1040 1086 1076 1153 1032 1364
139 538 378 996 813 1306 1667 1516 1663 1890 3614 3459 3268 3162 3139 3177 3431 3748 3980 4277 4098 3956 3739 3886 3816 3513 3341 3642 3632 3526 3396 3340 2985 3315 3057 2679 2802 2963 3522 3558 3331 3167 3449 3590 3681 3404 3578 3868 3954 4097 4308 3946 3859 3876 3587 3406 3749 3853 3751 3559 3263 3166 3395 3104 2741 2543 2378 2379 2172 1899 1447 1296 1722 1813 1836 1734 1595 1350 1360 1382 1260 1270 1186 1126 1413
392 1260 1898 2139 2555 2663 2674 2735 3412 4062 3748 3896 3882 3362 3280 3191 3262 3612 3816 4047 4013 4013 3757 3572 3506 3380 3344 3484 3266 3417 3495 3312 3241 2934 3059 2586 2329 3076 3328 3292 3183 3019 3354 3570 3657 3831 3991 4098 3965 4097 4411 4215 3800 3822 3688 3376 3560 3825 3854 3730 3514 3332 3278 3210 2847 2609 2352 2428 2393 2044 1740 1457 1558 1977 1986 1778 1643 1730 1417 1607 1282 1314 1306 1342 1460
640 1766 1445 1742 2263 2340 2330 2932 4175 4141 3616 4039 4074 3438 3328 3322 3312 3417 3549 3734 3846 3920 3590 3702 3702 3766 3539 3469 3686 3062 3034 3362 3196 2689 2730 2358 2352 2728 3010 3738 3595 3450 3191 3265 3747 3703 3978 4252 4004 3901 4182 4360 4068 3908 3814 3615 3378 3579 3889 3813 3671 3489 3364 3354 3201 2898 2660 2580 2591 2361 1947 1769 1669 1764 1877 1780 1700 1712 1676 1471 1478 1322 1382 1358 1355
1180 1802 1126 1454 2317 2792 2481 3562 4292 3594 3409 3749 3842 3452 3361 3866 3730 3310 3426 3482 3897 3589 3880 3593 3829 3612 3637 3436 3421 3234 3348 3288 3295 2700 2515 2530 2589 2492 2663 3133 3416 3515 3116 2941 3531 3702 3654 4242 4282 4034 3923 4168 4246 4061 4009 3968 3736 3695 3997 3986 3764 3715 3412 3405 3451 3198 2886 2708 2657 2607 2213 2078 1884 1708 1700 1767 1794 1735 1754 1534 1565 1648 1496 1444 1360
1657 2037 3274 2307 2719 4684 4663 4824 4233 3673 3509 3479 3323 3325 3683 3994 3734 3352 3194 3251 3701 3752 3797 4051 4340 4093 3967 3420 3665 3596 3478 3570 3193 3082 2880 2653 2598 2497 2692 3111 3846 3795 3425 2973 2809 3649 3702 3936 4375 4263 4131 4076 4254 4245 4217 4284 4182 4031 4054 4080 3974 3869 3631 3579 3539 3447 3093 2761 2697 2698 2432 2200 2086 1886 1616 1684 1886 1839 1747 1708 1692 1752 1670 1498 1417
1384 3429 2634 1507 3068 4904 5106 5021 4360 3766 3491 3415 3460 3365 3802 4042 3678 3715 3224 3198 3525 3692 3665 3826 4362 4425 4210 3956 3798 3826 3637 3538 3434 3386 3182 2920 2700 2762 2796 2817 3592 3743 3340 3139 2800 2523 3715 3815 4082 4444 4294 4067 4054 4166 4125 4275 4358 4276 4110 4031 4051 3952 3882 3762 3734 3594 3424 3118 2931 2726 2622 2336 2275 2032 1582 1530 1756 1784 1828 1743 1822 1787 1772 1583 1468
1093 1978 2752 2422 3428 5590 5420 5019 4694 3878 3921 3177 3427 3878 3882 3804 3644 3093 3693 3303 3551 3577 3577 3427 4052 4508 4482 4316 4292 4149 3945 3773 3579 3704 3456 3190 2918 2860 2725 2824 3081 3629 3671 3662 3290 2773 2894 3887 3990 4413 4540 4296 4036 4022 3803 3819 3986 4195 4081 3720 3851 3961 3913 3813 3814 3756 3660 3540 3247 2867 2728 2348 2139 2006 1670 1411 1462 1660 1720 1726 1853 1860 1824 1782 1564
421 2398 1639 3278 3620 4488 5310 5334 5080 4532 4173 3659 3474 3652 3512 3219 3023 2990 3620 3338 3350 3761 3685 3433 3604 4459 4725 4667 4632 4504 4404 4224 3945 3906 4013 3603 3222 3111 2975 3072 3134 3265 3590 4116 3988 3603 2770 3111 3991 4117 4523 4520 4287 4029 3772 3698 3732 3788 3943 3705 3651 4032 3986 3887 3906 3948 3881 3727 3559 3249 3028 2543 2353 2222 2035 1677 1198 1409 1644 1640 1712 1859 1873 1845 1711
1170 1732 1507 3053 2953 3820 4536 4758 4496 4147 4117 3648 3817 3527 3116 3043 2937 2793 2772 2804 2948 3671 3635 3706 3734 4592 5030 4950 4799 4810 4769 4776 4506 4287 4366 4216 3697 3345 3327 3350 3299 3284 3635 4064 4144 3961 3553 2814 3440 3958 4122 4469 4458 4000 3826 3883 3791 3773 3694 3637 3477 3684 4023 3978 3804 3807 3880 3772 3685 3460 3174 3024 2587 2340 2237 2065 1803 1328 1450 1654 1602 1802 1824 1756 1670
1698 2660 3857 3123 2696 2704 3853 3086 2706 2788 2731 2732 3540 2844 3026 2960 3085 3216 3042 2654 2841 3066 4004 4181 4088 4725 5162 5166 5077 5043 4980 4996 4969 4684 4609 4688 4393 3802 3604 3604 3507 3534 3692 4051 4240 4108 3939 3442 3098 4051 4251 4448 4699 4385 4094 4014 3926 3854 3770 3531 3562 3440 3651 3919 3806 3520 3480 3717 3705 3613 3401 3180 3133 2524 2364 2200 2034 1827 1433 1474 1551 1550 1751 1750 1662
0 5 43 281 1724 4353 3952 3142 3769 3223 2313 2153 2620 2876 3076 2707 2525 3024 2906 2987 3093 3081 3829 4510 4324 4829 5297 5394 5356 5234 5136 5174 5307 5211 4991 4987 4816 4320 3852 3859 3832 3836 3817 3982 4143 4227 4068 3974 3574 3673 4203 4430 4676 4570 4330 4100 3971 3846 3734 3423 3536 3582 3411 3573 3879 3712 3341 3409 3747 3668 3537 3340 3187 2984 2546 2360 2199 2049 1784 1384 1401 1428 1658 1838 1719
205 248 1440 3515 3642 2486 2317 1841 467 1188 3179 2828 2733 2417 3129 2818 2733 2620 2815 3594 3548 3290 3506 4618 4431 4813 5449 5616 5537 5361 5284 5340 5566 5539 5274 5160 5102 4750 4359 4113 4098 4148 3986 4120 4125 4212 4323 4170 4053 3773 3978 4363 4457 4514 4540 4368 4010 3864 3721 3513 3418 3607 3682 3737 3791 3892 3732 3412 3614 3808 3660 3438 3340 3342 2744 2528 2365 2221 1961 1736 1419 1348 1558 1905 1797
29 3605 4919 4800 3616 2944 1898 2945 3178 1129 554 2579 2588 2163 2084 2356 2348 2396 2595 3003 3821 3614 3496 4947 4644 4688 5326 5696 5694 5558 5504 5438 5584 5674 5418 5161 5136 5090 4807 4458 4203 4197 4182 4195 4377 4217 4308 4395 4362 4198 3915 4191 4344 4186 4443 4489 4384 4047 3746 3615 3288 3592 3634 3790 3918 3904 3973 3876 3600 3659 3742 3598 3432 3437 3208 2774 2580 2369 2103 1847 1708 1466 1492 1722 1929
1182 2557 2574 3629 3894 2944 2744 2780 2818 1846 1025 600 862 2111 1844 1718 2078 2122 2672 2460 2819 3936 3494 4130 4909 4611 5018 5625 5764 5753 5795 5742 5756 5800 5561 5217 5163 5336 5182 4808 4408 4272 4319 4347 4433 4343 4309 4450 4602 4563 4276 3947 4090 3935 4080 4373 4441 4379 4060 3710 3413 3584 3624 3677 3896 3995 4051 4128 4004 3758 3713 3719 3556 3439 3358 3067 2755 2566 2482 2270 1893 1696 1658 1686 1718
2408 3509 3921 5114 5208 5080 4443 4613 4332 3597 2525 1929 1002 860 2327 2341 2165 2129 2377 2309 2489 3370 3909 3881 4801 4925 4936 5478 5782 5820 5877 5893 5977 6093 5920 5488 5363 5463 5380 5003 4594 4368 4387 4429 4466 4495 4454 4466 4455 4578 4427 4342 4201 3996 3678 3916 4241 4335 4255 4060 3638 3530 3719 3638 3626 3870 4067 4109 4122 3786 3674 3800 3705 3484 3233 3296 2990 2707 2611 2636 2302 2020 1820 1740 1685
3836 3991 3653 3455 3568 3639 3477 3386 2798 2284 2316 2954 2615 1929 1272 3437 3003 1879 1892 2289 2713 3191 3930 4060 4415 5177 5087 5366 5722 6012 6109 5989 5950 6071 6185 5897 5701 5614 5544 5287 4881 4573 4321 4534 4478 4479 4537 4583 4526 4561 4312 4267 4314 4093 3741 3669 3888 4167 4237 4176 3996 3699 3728 3768 3653 3680 3919 4136 4230 3971 3714 3584 3691 3583 3358 3276 3129 2841 2661 2852 2691 2379 2090 1890 1820
3027 3264 2632 2700 3440 3758 4719 4595 4002 5562 5518 4463 2800 2984 3412 5181 3476 2077 2022 2871 2870 3319 4174 4187 4370 5424 5385 5297 5490 5905 6198 6117 6048 6245 6310 6150 5889 5810 5754 5651 5145 4532 4223 4174 4350 4439 4660 4766 4522 4378 4416 4246 4290 4440 3942 3799 3668 3720 3985 4083 4049 3884 3708 3817 3884 3791 3719 3814 4101 4368 3972 3800 3510 3432 3449 3359 3257 3018 2635 2866 2827 2573 2295 2096 1961
2419 2604 3535 2968 2454 4024 4122 3638 4867 4813 3828 3889 4109 4059 4298 3993 4651 3990 2439 2328 3196 3823 4818 4801 4724 5118 5643 5570 5492 5916 6208 6370 6359 6305 6310 6069 5950 5795 5751 5563 5048 4484 4521 4356 4354 4305 4177 4638 4786 4983 4807 4617 4510 4509 4246 4197 4068 3885 3734 3790 3906 3864 3814 3858 3922 3754 3725 3679 3732 3873 4127 3924 3810 3618 3502 3486 3346 3174 2884 2674 2872 2680 2360 2132 1969
1932 2698 3267 2622 2732 4105 4302 4117 4270 3890 4605 5027 4642 4495 4936 5674 5004 4649 4859 3266 5006 4564 4972 5153 4876 5035 5748 5961 5876 6137 6407 6305 6430 6518 6444 6225 5983 5633 5495 5781 5174 5114 4883 4850 4714 4453 4477 4602 4754 4925 5059 5006 4751 4264 5013 4274 4184 4077 3925 3772 3663 3707 3738 4019 3985 3921 3859 3723 3675 3757 3848 3848 3780 3807 3756 3607 3482 3293 3058 2761 2726 2611 2449 2175 1937
2473 3001 2945 2324 2672 3856 3871 3955 3739 3890 3909 4655 5198 6425 4884 4902 4932 4904 4849 4478 4785 5426 5437 5379 5122 4989 5892 6311 6233 6364 6335 5750 5891 6269 6374 6309 6090 5860 5837 5809 5720 5483 5468 5242 5300 5037 4820 4743 4852 5003 4884 5034 5250 4847 4354 4227 4161 3991 3825 3847 3871 3863 3789 3672 3923 3959 3935 3856 3792 3734 3762 3729 3708 3647 3686 3708 3604 3454 3283 3048 2761 2638 2582 2342 2046
2341 2653 2664 2278 2772 3514 3602 3538 3557 3911 4167 4393 5759 6149 5412 3871 4258 4202 4362 4129 5110 7519 6274 5764 5448 5112 5526 6508 6570 6027 5819 5639 6015 6253 6401 6496 6312 6046 6061 6032 6006 5852 5682 5641 5462 5433 5096 4760 4642 4883 4704 4598 5137 5382 4908 4356 4198 4095 3974 3847 3827 3855 3786 3727 3627 3912 3946 3915 3832 3816 3705 3610 3586 3593 3585 3538 3496 3432 3227 3072 2909 2638 2668 2475 2199
2000 2279 2497 2280 2542 3075 2888 3076 3296 3918 4076 4657 5429 5834 4068 4338 6428 6385 4700 4348 4886 5208 6299 6178 5655 5770 5749 6510 6674 6230 6218 6229 6201 6123 6239 6332 6345 6168 6091 6075 6094 5917 5650 5422 5541 5290 5370 5077 4814 4635 4738 4669 4586 5374 5272 4499 4252 4111 4002 3937 3888 3832 3744 3679 3628 3598 3658 3681 3654 3614 3545 3597 3540 3472 3373 3458 3387 3360 3304 3076 2889 2768 2629 2578 2341
1792 2117 2043 2398 2478 2657 2664 2592 3294 3698 3992 4335 4603 5005 5554 5306 5397 5722 5489 5415 4936 4954 5944 5840 6023 6236 5993 5434 6613 6464 6488 5870 5770 5500 6005 6169 5784 5684 5679 6123 6034 5842 5645 5498 5497 5123 5058 5084 5100 4898 4769 4675 4900 4567 4711 4874 4027 3955 3849 3792 3764 3688 3627 3553 3526 3515 3509 3474 3455 3460 3440 3349 3279 3301 3266 3240 3166 3087 3059 3005 2873 2762 2680 2572 2382
2353 2116 2230 2492 2575 2740 2648 2648 3528 3389 3321 3297 3752 3916 4442 4514 4419 4627 4801 5720 5846 4881 6041 5869 6118 5689 5967 6050 5947 5709 5455 5098 5173 4358 5043 5562 5498 5440 5580 5961 5888 5721 5597 5369 5180 4901 4847 4666 4703 4754 4558 4683 4601 4433 4783 4259 3848 3651 3564 3551 3603 3544 3462 3396 3358 3295 3279 3328 3169 3207 3360 3176 3135 3142 3144 3077 3093 3010 2962 3032 2814 2818 2668 2549 2447
2277 2350 2296 2769 2782 2698 3056 3002 2984 2876 2968 2925 3042 3210 3643 4043 4628 5154 4857 5269 5210 5217 5577 5946 5496 5689 5504 5447 5749 5434 5374 5143 5347 5207 5009 5170 5070 5038 5242 5928 5365 5312 5162 5056 4894 4559 4256 3912 3953 4101 4169 4342 4315 4333 3664 3582 3462 3405 3393 3457 3506 3554 3619 3613 3572 3501 3443 3385 3279 3249 3305 3176 2976 2954 3024 3070 3057 2957 2863 2800 2804 2782 2679 2476 2465
1892 2024 2177 2405 2577 2779 2715 2630 2685 2686 2826 3049 2788 3024 3312 3908 4176 4901 5367 5278 5341 4630 5117 5214 5409 5570 6289 5724 5950 6202 5710 5354 5196 4943 4343 4087 4454 4049 4781 4694 4547 4578 4381 4565 4443 4179 4399 3927 4404 4732 4653 4642 4196 3784 3527 3403 3346 3432 3441 3411 3387 3414 3425 3399 3467 3442 3399 3372 3422 3399 3429 3354 3251 3221 3172 3081 2993 2850 2864 2730 2447 2509 2566 2495 2390
1758 1806 1975 2383 2294 2354 2381 2352 2526 2582 2738 2770 2768 2884 3115 3044 3990 4414 5148 5438 5456 5730 5189 5407 5178 5574 5499 5652 5479 4929 4825 5030 4684 4085 3911 4303 4497 4416 4055 3672 3979 4097 4040 4021 4482 4197 4102 4103 3892 3694 3584 3680 3743 3848 3768 3727 3647 3543 3555 3505 3485 3467 3499 3476 3435 3402 3368 3365 3352 3310 3319 3305 3301 3230 3205 3245 3242 3220 2936 2805 2631 2469 2427 2352 2210
1782 1997 1961 1905 2096 2269 2304 2305 2281 2368 2207 2329 2364 2395 2826 2872 3583 4406 4318 4510 4964 5290 5605 5295 5512 5603 6133 5296 4835 4733 4826 5866 5891 4319 3902 3973 4229 4484 4309 3902 3688 3730 3814 3873 3837 3791 3888 3927 3918 3885 3747 3588 3504 3435 3373 3320 3392 3451 3397 3375 3321 3287 3268 3258 3261 3198 3174 3149 3122 3056 3003 2921 2934 3232 3055 3147 3130 3114 3110 3000 2742 2725 2519 2362 2249
Wind_Speed
16 17 14 12 13 9 7 6 7 5 8 6 6 2 4 6 4 6 6 7 9 9 10 10 10 10 10 8 6 5 6 6 6 4 3 4 2 3 3 0 0 2 2 3 5 6 6 7 7 8 9 9 9 10 8 7 10 11 11 10 11 8 9 9 12 10 8 9 7 9 9 7 nan nan nan nan nan 10 7 6 9 nan nan nan 9
15 14 14 13 11 10 7 6 5 4 8 5 4 1 5 5 5 8 8 9 10 9 11 11 12 10 9 8 6 5 5 4 4 5 3 3 2 3 3 1 0 1 2 3 4 5 6 6 6 7 6 6 7 8 9 10 13 14 11 8 9 10 9 12 11 9 7 9 10 10 9 9 9 nan nan nan nan nan nan 9 9 nan nan nan nan
14 14 13 12 14 12 7 6 4 3 5 4 5 3 4 6 6 8 9 9 10 9 10 10 11 10 8 7 5 5 3 3 3 3 4 3 2 3 3 2 1 1 2 3 4 5 6 6 6 6 6 6 7 7 8 11 10 11 11 9 8 9 9 9 8 9 8 8 7 6 8 nan nan 3 nan nan nan nan nan nan nan nan nan nan nan
15 16 15 14 13 11 6 6 6 5 7 5 3 2 3 7 6 8 10 9 10 10 10 10 10 10 8 7 6 6 5 4 3 3 3 3 2 2 4 2 1 1 3 4 4 5 5 6 6 7 7 7 6 7 8 8 9 10 11 10 9 10 9 8 9 8 7 6 7 7 10 10 nan nan 8 nan nan nan nan nan nan nan nan nan nan
14 17 15 13 14 12 9 8 5 6 5 5 3 2 4 3 7 8 11 9 11 11 9 9 10 9 9 9 8 8 9 6 5 4 3 3 2 1 1 2 0 1 3 4 5 5 5 4 4 5 7 7 6 7 7 8 7 8 9 9 11 8 7 8 9 9 8 5 5 6 6 7 9 10 nan 7 4 nan nan nan nan nan nan 9 nan
16 17 15 14 13 13 12 9 4 5 5 5 4 4 5 6 8 9 12 12 11 11 9 10 10 10 10 9 9 9 9 8 4 2 2 1 4 1 1 1 1 1 2 4 5 5 5 6 6 5 6 6 7 6 7 6 7 9 8 9 10 9 9 9 8 6 7 6 6 7 7 7 6 nan nan 6 4 nan nan nan nan nan nan 9 8
19 17 13 13 12 12 15 11 4 2 3 6 6 7 7 8 9 9 12 13 12 12 10 12 11 11 10 10 11 9 8 7 5 2 3 3 4 5 4 2 1 2 3 4 5 5 5 6 6 6 6 7 6 6 7 8 8 8 8 8 8 7 7 8 9 9 5 3 5 5 6 7 5 6 4 nan 5 3 5 nan nan nan nan nan nan
22 18 13 10 12 11 14 14 7 2 3 6 6 8 9 9 11 10 12 13 13 13 10 12 12 12 12 10 10 9 6 7 4 3 6 7 5 6 5 3 2 1 1 3 5 4 5 6 6 6 6 6 6 6 6 6 5 4 6 7 7 7 8 10 8 9 9 7 6 6 7 5 1 5 6 6 8 6 5 4 nan nan nan nan nan
22 18 12 10 12 12 15 16 11 5 4 4 7 10 11 12 12 11 11 12 13 13 12 13 14 13 13 11 10 10 7 6 8 7 7 9 7 6 7 5 4 2 2 2 5 5 5 6 6 6 6 5 6 6 6 6 5 5 6 7 7 8 10 10 9 7 8 8 6 5 6 5 8 9 5 6 5 7 nan nan 6 nan nan nan nan
21 20 14 11 11 11 17 21 20 10 5 7 7 11 13 14 13 12 11 12 13 13 13 13 14 14 12 10 9 9 8 8 9 8 8 8 8 6 6 6 4 3 3 1 5 6 6 7 7 8 7 7 5 6 7 6 4 4 5 7 8 10 10 12 10 9 5 4 7 8 7 7 7 7 8 9 8 6 9 nan nan 11 11 11 9
18 19 16 14 12 13 14 17 20 13 9 5 5 9 12 14 14 13 12 12 12 13 14 14 13 13 11 9 8 7 7 8 9 9 8 7 6 7 5 6 5 4 3 2 4 7 6 7 8 8 8 7 6 5 6 5 6 6 6 7 8 9 11 13 9 5 4 4 7 7 9 8 8 9 8 nan 9 10 11 12 nan nan nan 14 13
19 20 19 18 15 14 17 16 16 11 4 1 1 7 11 13 14 14 13 12 12 13 14 13 12 11 10 9 7 7 7 9 9 9 8 6 6 6 7 6 6 6 5 5 4 7 6 7 7 7 9 8 9 7 6 6 6 7 6 7 7 9 11 12 10 8 5 5 7 9 9 8 8 7 8 6 8 11 12 12 9 8 8 15 12
19 21 20 17 14 15 13 13 15 11 4 4 4 7 11 13 15 15 13 13 12 13 14 13 11 10 10 8 7 8 8 9 9 9 9 8 8 7 8 7 6 6 6 5 6 6 8 8 7 7 8 10 9 10 8 8 8 7 8 8 8 9 10 13 13 10 8 7 7 10 11 11 10 10 7 10 10 11 10 9 12 15 13 13 14
16 20 20 16 15 11 10 11 11 6 2 5 5 7 10 12 13 14 13 13 13 13 13 12 11 11 10 9 8 9 9 9 10 9 9 10 9 8 7 8 7 6 6 6 6 7 7 8 8 7 7 9 10 10 11 9 10 8 11 9 9 9 9 12 13 12 10 9 8 8 14 nan 11 nan nan 9 11 14 14 15 14 12 15 18 16
18 18 20 19 16 13 12 10 7 4 2 4 4 6 10 11 13 13 13 12 13 12 12 12 12 11 11 9 9 10 10 10 10 10 9 9 9 8 8 8 8 7 6 7 7 9 8 9 10 9 8 9 10 10 11 11 11 10 10 11 8 11 9 11 13 13 12 11 10 10 9 12 13 15 nan 14 12 16 16 18 17 18 15 16 17
19 16 17 16 13 13 13 11 7 3 3 3 4 7 9 10 11 12 12 12 12 12 12 12 12 12 11 9 9 10 11 11 10 10 9 8 8 8 8 8 8 8 8 7 9 8 10 11 12 10 9 9 11 12 11 11 13 12 12 12 10 11 10 11 13 14 12 11 10 9 9 9 11 12 15 nan nan 13 20 18 20 19 19 18 18
24 17 16 16 13 12 16 15 6 2 8 6 6 8 11 13 12 11 11 11 11 12 13 13 13 13 11 10 9 10 10 11 11 10 10 9 8 9 9 9 8 8 9 8 9 9 9 12 13 12 11 10 11 12 12 12 13 14 13 13 12 12 12 11 11 14 13 12 10 10 8 9 7 9 12 15 nan 15 15 19 20 21 19 18 19
27 20 19 23 20 16 16 12 5 10 15 9 8 9 12 14 14 13 12 12 11 12 13 14 15 14 13 12 10 10 10 11 11 12 11 11 10 10 10 10 10 9 10 10 10 11 10 12 13 13 13 12 11 12 13 12 13 14 14 14 13 12 14 12 11 12 13 10 11 10 10 8 10 8 12 11 17 18 16 16 18 18 19 21 19
25 24 17 19 21 20 19 15 11 15 10 8 7 11 13 14 14 14 14 14 13 13 13 13 15 14 14 14 14 12 11 11 11 12 12 12 12 12 11 10 12 11 11 11 13 13 13 12 14 15 15 14 13 13 14 13 13 13 14 15 14 13 13 14 13 11 12 13 10 11 11 10 10 9 11 14 16 19 19 18 17 18 19 20 21
22 21 18 19 20 21 24 18 5 10 11 9 10 10 12 13 14 13 12 12 13 13 13 14 15 15 15 16 15 13 13 11 11 12 12 12 12 13 13 12 13 13 13 14 15 16 16 15 15 16 17 17 16 15 16 16 14 14 14 14 15 15 13 13 14 12 11 14 12 10 12 13 12 11 11 14 16 19 18 19 19 20 20 20 20
nan 22 17 19 20 19 24 22 9 7 8 6 9 10 11 11 12 12 12 13 13 12 13 12 13 13 15 16 15 14 14 12 11 11 11 11 12 13 14 13 15 15 15 16 16 18 20 20 18 18 18 19 19 18 18 18 17 16 15 15 16 17 16 14 14 14 13 13 14 12 12 15 15 13 13 14 16 19 20 20 19 21 22 22 22
21 23 19 18 21 18 23 22 19 3 9 9 10 10 11 11 10 11 10 10 12 11 11 13 12 12 13 14 14 13 13 12 13 12 12 13 14 14 15 17 17 18 18 18 19 20 21 23 22 21 20 21 22 22 21 20 19 19 17 17 15 18 19 17 16 15 15 14 15 15 13 15 17 16 15 15 15 18 20 20 21 21 22 23 23
nan 27 21 17 21 19 17 18 15 6 9 10 11 12 12 12 10 10 10 10 11 11 11 12 12 12 13 13 14 14 15 15 16 15 16 16 16 17 18 18 18 18 19 18 20 21 21 23 23 24 24 22 23 24 23 21 21 21 20 18 18 18 21 20 18 17 17 17 15 16 15 15 18 17 17 17 17 17 20 21 22 21 21 22 24
15 21 19 15 20 20 17 17 15 10 7 9 10 11 12 12 11 10 10 11 11 11 12 13 12 13 14 15 16 16 19 19 18 17 18 19 18 18 19 18 18 16 17 18 19 21 22 22 23 24 25 24 23 24 24 23 23 23 22 20 20 20 21 22 21 21 20 19 18 17 18 17 17 18 18 18 18 18 19 21 21 22 22 21 22
17 27 27 20 24 21 16 15 13 9 7 8 9 11 13 13 13 12 12 12 12 12 12 13 14 14 16 15 18 19 20 21 21 20 20 21 20 19 19 18 16 16 16 19 19 20 21 22 22 22 23 24 24 24 24 23 22 23 23 23 21 21 21 22 23 23 22 22 20 19 20 20 18 19 20 19 19 20 20 21 22 21 23 22 21
23 30 25 18 20 21 19 15 13 10 7 9 10 11 12 13 13 13 15 15 13 13 12 14 14 15 15 17 18 19 20 21 21 21 21 21 19 18 18 18 17 17 17 19 22 21 20 21 21 20 20 22 23 23 24 23 22 22 23 23 22 21 21 22 23 23 23 23 22 21 21 22 21 21 21 21 20 20 21 21 22 23 22 23 22
23 22 18 17 19 19 18 16 14 11 7 8 11 11 11 12 13 15 16 16 16 14 14 15 16 15 16 18 20 20 19 20 20 20 20 20 19 19 18 18 19 19 20 21 22 22 20 19 19 19 18 19 21 22 22 22 22 21 21 23 23 22 21 21 22 23 23 23 23 23 22 22 21 21 22 23 23 22 21 21 23 24 24 24 24
23 24 25 16 16 21 20 18 15 13 9 8 9 10 10 12 14 14 15 16 17 17 17 17 18 17 16 18 18 19 19 19 19 19 19 19 18 17 17 17 18 20 21 22 21 22 21 19 18 19 18 17 18 20 21 21 21 21 21 21 23 23 21 21 21 22 22 22 23 24 24 23 22 22 23 24 25 24 23 22 24 25 25 25 24
28 28 29 22 17 20 20 20 19 17 14 11 10 10 11 12 12 14 13 14 17 18 19 20 21 20 19 18 17 16 18 19 19 20 19 18 17 16 17 17 18 20 19 21 20 19 20 19 18 19 19 18 17 17 18 19 20 21 20 21 22 23 23 21 21 21 22 23 23 24 24 24 24 24 25 26 27 28 26 25 26 27 27 27 26
31 28 32 27 18 21 21 22 21 19 18 15 15 15 14 13 13 13 11 12 16 18 19 20 21 21 21 21 19 17 17 18 19 20 19 18 17 17 17 17 18 20 21 20 18 17 18 20 19 18 18 17 15 14 17 23 22 20 20 19 21 23 24 23 22 22 23 24 24 25 24 26 27 28 28 28 29 31 30 29 29 30 30 29 28
31 32 31 29 25 24 23 23 22 21 20 19 19 18 17 14 13 12 13 12 16 19 20 19 19 20 22 23 21 18 18 18 19 19 19 19 18 18 17 17 18 20 21 21 19 17 15 17 19 18 18 16 15 14 21 22 24 25 21 20 20 22 23 24 24 23 23 25 25 25 24 27 28 29 30 32 31 31 32 32 33 34 33 33 32
32 30 29 28 28 25 24 23 22 21 21 21 22 21 19 16 16 15 15 15 15 19 20 20 20 21 21 22 22 21 19 18 19 19 20 19 19 18 18 18 19 21 20 20 19 17 15 14 16 17 16 15 14 17 23 25 26 27 26 22 20 20 21 22 23 24 24 24 26 26 26 26 28 29 30 30 31 33 34 34 34 34 35 35 34
30 33 33 25 24 26 25 24 23 23 23 20 22 21 21 20 19 19 18 19 19 20 24 23 22 21 20 20 21 21 20 19 19 19 19 20 20 19 18 18 20 20 20 19 18 18 16 14 13 16 15 14 13 17 23 26 27 28 29 26 21 21 21 21 22 24 24 25 25 26 26 27 27 32 31 30 30 30 32 36 35 34 34 35 34
nan nan nan 24 31 30 25 23 23 23 22 20 20 21 23 22 19 21 19 19 21 20 26 27 25 22 22 21 21 21 19 18 19 20 20 20 20 19 18 18 18 19 19 18 18 18 17 15 14 13 14 13 13 16 22 25 27 29 29 28 22 22 22 22 24 25 25 25 26 26 27 28 28 31 30 30 30 30 31 34 35 34 32 32 33
35 30 34 35 34 28 25 23 24 23 24 23 23 21 23 23 21 21 21 21 21 21 23 29 29 27 25 23 22 20 19 18 19 20 20 19 19 19 19 18 18 17 18 17 17 17 17 16 16 14 13 11 10 17 22 24 26 29 29 29 24 23 23 23 24 26 27 28 29 30 30 29 30 31 31 31 31 31 31 33 36 36 34 33 33
nan 39 36 32 34 29 27 29 30 28 28 27 26 23 23 22 22 21 23 23 23 23 23 28 29 30 29 25 21 19 18 18 18 19 19 18 19 20 20 20 18 16 16 16 16 16 17 17 16 16 14 12 12 19 22 23 25 27 31 27 26 26 25 25 26 27 28 28 30 31 32 32 32 33 35 37 35 34 33 33 35 35 35 34 33
39 42 33 28 29 28 27 28 27 26 24 24 26 27 25 25 25 24 25 24 24 25 24 25 28 30 29 24 18 17 18 18 18 18 17 18 20 20 20 21 19 16 16 16 16 17 18 18 18 19 18 15 14 21 25 25 26 29 30 27 28 28 27 27 27 29 29 29 30 31 32 32 34 35 39 42 40 41 36 35 34 35 36 36 33
41 36 31 31 32 31 31 28 26 24 22 23 23 25 28 29 29 28 28 26 25 24 25 25 26 27 26 20 15 15 16 17 17 16 16 17 19 19 19 20 19 18 17 16 17 18 19 20 20 20 21 19 17 23 29 29 31 33 34 30 31 31 30 28 27 28 29 29 30 33 33 33 34 36 43 47 47 46 40 37 35 35 37 38 35
41 35 31 31 31 28 24 22 19 17 18 19 21 22 22 28 30 28 29 27 26 25 27 27 26 25 23 18 15 14 15 16 15 15 15 16 16 16 17 19 18 18 17 18 19 19 19 21 21 21 21 20 19 23 31 32 33 36 35 30 31 31 30 29 30 29 29 30 30 31 34 34 33 36 43 48 50 49 44 42 39 37 38 39 38
40 37 32 30 28 24 24 24 26 28 23 20 18 20 21 24 25 25 26 28 27 28 30 29 27 25 23 18 15 15 15 15 15 15 15 15 16 16 16 17 17 18 18 19 20 20 21 21 22 21 21 22 21 22 31 33 35 36 40 36 33 32 29 30 32 33 33 31 30 31 32 33 34 36 43 47 49 50 45 44 44 42 40 39 42
41 38 34 34 31 31 30 25 29 26 24 23 25 24 21 20 23 23 22 25 29 31 32 30 27 26 23 18 16 15 14 14 15 15 15 16 16 16 17 17 17 18 19 20 20 21 22 22 23 23 21 22 24 24 30 36 36 38 39 38 35 32 30 32 33 34 33 32 31 32 31 34 35 36 42 46 48 48 46 45 47 44 43 43 50
42 37 40 37 34 33 29 31 31 30 32 30 23 20 22 23 21 21 22 25 29 29 31 30 28 26 25 21 18 17 17 16 15 16 16 16 17 17 17 18 19 20 21 22 22 22 22 21 21 21 21 22 24 26 26 32 35 37 38 39 33 29 30 33 35 34 33 32 32 34 34 35 39 39 42 46 46 46 46 45 45 46 45 50 53
42 43 45 40 37 35 34 35 33 34 32 30 30 28 23 23 23 24 25 25 28 25 27 28 27 26 26 24 22 21 21 17 16 18 19 17 18 19 19 20 21 22 23 23 23 24 23 22 22 22 22 23 24 26 27 31 33 36 37 36 33 29 33 36 35 34 34 33 35 36 36 36 42 44 46 48 48 48 46 44 44 48 50 53 53
45 45 46 41 37 38 36 36 35 35 32 30 29 26 25 26 27 27 26 27 27 26 25 26 27 26 27 27 25 23 22 20 20 22 21 20 20 21 22 23 24 24 25 24 25 26 26 25 24 25 26 26 28 29 31 35 36 38 38 37 34 31 33 37 37 35 36 36 37 39 39 38 44 47 49 51 51 52 49 47 44 46 50 53 53
48 48 49 45 41 39 37 36 35 34 34 31 30 27 27 31 33 29 29 29 29 28 26 26 27 28 28 29 28 26 25 24 24 24 23 23 24 25 25 26 27 26 26 25 27 28 27 27 27 28 29 30 31 31 31 38 41 41 41 40 37 37 35 36 37 37 36 38 40 41 42 41 45 50 52 53 52 53 54 54 50 49 53 54 54
50 49 49 44 43 41 41 38 37 39 37 34 33 34 37 35 31 32 31 31 29 27 28 27 29 30 29 29 29 28 27 25 24 26 26 26 26 28 28 29 29 29 28 28 29 30 30 30 31 30 31 33 34 33 32 38 40 40 39 39 41 40 39 38 37 37 38 38 41 44 46 52 54 51 52 52 51 52 53 54 56 55 55 55 55
50 50 47 46 46 44 42 40 43 42 41 38 36 34 35 31 29 27 29 32 30 30 31 30 30 30 30 30 29 28 26 26 27 26 29 30 29 31 31 31 32 31 31 32 31 32 33 34 33 33 35 35 36 36 37 42 47 44 41 39 36 34 31 31 34 35 35 39 42 47 49 50 50 59 61 59 56 55 57 58 59 58 57 58 60
47 48 48 48 48 47 46 45 44 43 41 40 39 38 36 36 36 36 31 30 29 29 29 29 28 29 30 31 32 30 30 32 33 32 32 34 33 33 33 35 34 33 34 34 35 35 36 37 36 36 37 39 40 44 50 48 49 47 47 48 47 45 44 45 42 40 39 39 44 47 50 54 60 60 59 56 56 60 62 64 63 63 61 61 63
44 44 46 47 47 47 47 46 44 43 42 42 41 39 38 38 37 36 38 31 31 30 30 30 29 31 33 35 35 35 36 36 39 41 45 43 37 33 38 43 44 39 40 36 36 38 40 42 46 47 48 50 52 52 49 51 54 54 54 51 51 49 47 46 44 42 43 46 50 50 51 55 61 61 61 58 58 59 60 61 63 63 62 61 61
44 42 43 46 46 46 47 46 45 44 45 44 44 42 41 40 37 37 37 38 36 33 32 33 31 31 34 36 34 36 36 38 43 46 47 48 52 54 49 48 46 49 57 59 57 51 48 50 54 52 52 55 54 54 55 58 61 60 59 58 54 51 50 49 48 47 51 52 54 55 56 58 64 63 59 58 60 61 61 62 61 61 63 64 65
46 45 43 44 45 45 46 45 45 45 44 45 44 43 41 42 39 39 40 39 41 41 41 41 39 39 38 36 34 37 39 42 42 46 48 51 52 53 55 56 56 57 61 62 62 63 64 60 56 56 59 66 64 61 62 62 63 65 66 63 61 58 52 50 53 56 56 58 56 57 58 62 67 65 61 60 61 62 64 65 64 65 65 65 67
Wind_Direction
316 321 320 305 297 287 254 230 219 209 219 224 236 212 181 204 192 208 215 208 208 187 179 172 176 182 176 172 172 163 157 150 137 136 105 105 137 281 306 308 1 37 30 24 27 30 42 46 5 13 31 23 30 54 48 50 65 53 44 44 47 50 59 54 43 43 3 9 15 358 359 360 nan nan nan nan nan 345 351 359 331 nan nan nan 352
317 315 320 315 295 300 263 221 216 208 212 227 228 186 185 198 192 193 209 204 210 194 186 177 183 185 185 180 176 172 161 160 146 141 119 91 171 252 269 212 25 2 20 23 16 25 28 36 6 25 23 24 35 39 44 34 34 45 32 23 53 38 42 43 42 25 29 12 16 0 9 7 7 nan nan nan nan nan nan 17 353 nan nan nan nan
317 319 322 314 309 300 269 238 209 195 226 237 214 211 189 191 198 188 206 203 209 204 192 181 188 190 187 185 177 181 179 169 144 130 138 117 226 235 239 202 215 319 4 6 21 24 21 23 4 15 16 25 24 35 43 43 39 40 30 23 36 56 42 36 22 38 27 15 12 3 8 nan nan 46 nan nan nan nan nan nan nan nan nan nan nan
321 321 328 323 307 292 271 248 213 203 206 226 238 242 201 188 209 199 209 204 208 206 199 187 192 196 189 192 175 178 216 205 179 183 155 139 149 235 217 219 208 335 3 7 16 24 17 19 8 6 9 26 19 15 39 45 27 35 34 23 33 32 30 35 20 21 36 6 3 20 14 353 nan nan 40 nan nan nan nan nan nan nan nan nan nan
316 323 327 321 313 304 279 253 226 207 204 231 238 241 200 212 223 214 208 212 202 213 206 200 200 197 200 190 189 184 210 224 213 181 172 160 125 207 209 247 227 25 3 8 14 19 18 7 18 7 8 12 12 21 23 47 35 34 40 19 29 20 17 31 16 15 359 5 352 15 27 347 6 7 nan 46 17 nan nan nan nan nan nan 299 nan
316 322 327 328 318 288 273 261 239 208 201 217 227 243 224 217 229 224 211 213 210 217 215 213 201 208 209 202 206 202 201 226 213 177 141 105 83 56 284 335 359 45 352 4 19 15 17 10 18 7 14 9 10 8 19 45 30 31 39 27 24 19 9 25 1 357 344 349 358 2 6 1 357 nan nan 17 7 nan nan nan nan nan nan 317 329
317 318 320 322 311 300 289 273 257 211 223 231 230 233 239 233 238 237 221 219 216 216 222 216 214 208 217 213 209 215 207 212 214 157 142 177 150 170 235 252 247 11 26 1 17 14 11 21 20 14 11 4 5 5 22 29 33 36 14 25 25 6 5 13 1 345 340 8 20 39 16 39 28 353 0 nan 1 31 354 nan nan nan nan nan nan
308 317 324 311 311 315 302 289 265 221 243 256 254 248 249 246 247 244 227 226 220 223 223 222 219 218 224 222 217 220 214 208 225 200 172 190 198 159 225 239 262 301 45 354 2 13 6 16 19 7 21 1 345 359 19 42 24 18 23 17 4 356 359 5 7 338 352 11 34 24 47 33 106 97 4 4 359 353 29 5 nan nan nan nan nan
307 312 324 301 278 271 275 278 262 229 214 252 265 254 251 252 251 249 241 234 231 236 233 229 223 224 227 225 223 219 221 206 212 211 193 188 198 183 196 251 273 310 25 352 341 1 357 5 14 4 13 10 340 345 360 28 29 3 4 2 356 353 357 2 343 352 15 6 10 32 62 31 38 36 6 13 351 5 nan nan 9 nan nan nan nan
308 316 311 286 258 253 248 251 249 209 190 203 249 261 262 257 261 265 253 242 238 245 245 240 234 231 231 229 232 225 219 216 214 221 209 200 186 206 193 227 270 292 328 12 319 349 354 354 10 5 4 9 349 346 350 355 339 358 352 355 360 352 355 353 352 357 32 14 7 4 25 35 28 46 31 11 358 1 24 nan nan 345 346 342 341
297 304 308 281 256 245 253 264 261 240 191 196 234 267 281 278 276 278 267 250 250 251 254 251 242 237 233 238 236 233 228 223 225 229 226 215 200 209 217 211 247 273 293 307 308 334 345 351 6 3 358 351 335 334 327 341 346 336 349 352 358 352 354 344 354 351 14 10 357 6 13 33 19 16 29 nan 10 2 12 21 nan nan nan 331 348
292 294 301 289 270 252 260 269 274 267 222 177 294 275 288 288 286 285 273 266 260 258 260 258 250 245 244 246 243 234 232 225 232 233 245 234 227 224 231 226 230 255 273 285 318 344 330 340 354 354 352 347 338 326 324 334 336 322 326 329 350 347 352 337 347 346 13 350 17 358 7 26 11 7 17 354 7 354 357 9 349 330 332 331 335
285 285 290 292 285 261 263 278 264 253 203 317 337 312 300 297 301 297 287 277 267 265 270 270 265 260 255 258 249 236 236 234 233 235 243 247 244 243 246 252 248 252 275 290 310 337 314 326 339 347 343 349 343 336 330 324 311 315 312 321 336 350 349 343 336 343 1 343 19 356 358 17 358 355 13 356 347 321 335 343 353 347 344 333 344
283 290 299 295 288 287 277 274 264 257 15 330 329 301 290 301 305 307 298 287 271 271 276 277 278 267 262 259 253 247 245 242 240 244 247 254 258 260 265 271 274 281 284 294 302 321 309 317 323 333 334 338 346 341 335 324 312 313 310 316 336 336 349 344 331 343 341 355 1 9 356 nan 3 nan nan 13 345 339 345 353 353 349 354 346 347
265 266 274 273 289 296 276 264 259 265 20 356 302 279 285 293 302 308 301 293 284 281 274 283 272 273 267 263 259 253 253 251 249 250 254 261 269 276 277 280 286 295 304 292 297 303 311 305 314 322 330 330 335 343 342 334 322 313 304 309 317 322 347 332 332 338 341 352 358 11 17 358 10 352 nan 3 8 346 350 354 349 350 356 338 344
283 271 279 286 288 286 276 257 238 278 24 351 307 267 277 283 296 303 301 297 286 282 277 278 275 271 275 276 272 265 257 260 258 260 262 268 277 285 292 294 295 299 305 297 307 298 304 306 310 318 318 324 329 339 341 338 330 323 315 309 314 312 327 333 330 334 338 342 354 3 10 21 2 4 354 nan nan 353 350 353 348 351 351 349 343
294 300 294 303 288 285 263 255 250 37 30 11 317 294 291 281 280 281 280 280 284 287 282 279 279 279 286 286 278 274 279 287 288 295 311 298 295 299 301 310 307 300 304 307 303 305 291 300 304 313 315 316 323 327 336 335 331 330 326 317 316 314 314 326 325 325 329 337 337 353 3 13 20 6 358 348 nan 347 342 342 344 348 350 349 350
290 294 294 304 301 290 267 261 269 29 31 9 328 288 275 275 285 286 279 283 280 284 285 284 290 294 297 301 299 297 295 299 297 302 308 305 308 305 307 307 317 314 306 307 304 307 300 297 297 302 307 311 315 318 324 329 327 330 331 327 319 309 307 309 319 319 320 318 322 331 347 359 358 14 352 351 337 339 337 337 340 343 345 350 351
276 282 288 295 297 305 300 320 2 39 29 357 299 285 274 273 281 290 297 301 299 292 294 287 297 291 296 309 317 312 302 298 295 297 302 310 320 313 317 309 311 311 305 299 303 305 303 296 294 300 301 307 307 307 309 315 320 322 327 325 323 315 304 303 307 315 313 314 310 319 323 339 337 357 348 352 338 337 338 339 341 340 344 346 350
275 284 290 302 302 298 304 305 343 68 25 354 333 312 309 294 288 291 292 290 293 300 295 297 306 303 306 312 317 317 313 310 304 300 304 314 313 315 318 319 310 307 307 306 301 305 304 305 301 302 304 306 306 305 305 307 309 312 317 322 323 320 311 303 303 308 311 307 309 305 309 316 323 331 340 340 335 335 335 340 340 341 339 343 346
nan 280 293 305 300 302 297 291 279 103 65 344 330 333 316 299 300 304 301 305 309 309 306 300 302 308 311 317 320 320 324 318 320 315 311 308 305 307 309 308 299 303 303 307 305 303 303 305 307 302 305 302 301 301 299 299 302 304 307 311 315 319 318 308 299 303 308 301 304 304 298 306 309 319 326 329 331 329 333 334 338 337 339 339 343
262 275 289 298 287 277 262 257 264 150 81 10 338 325 322 317 304 302 301 303 312 311 300 295 296 298 309 312 319 316 316 312 322 318 314 311 308 305 302 301 306 304 303 306 307 303 300 303 305 303 301 299 299 299 300 297 299 300 304 301 307 312 317 316 306 301 299 299 299 302 301 300 307 313 319 325 325 327 328 332 334 336 337 338 339
nan 268 279 278 276 275 266 271 276 323 39 6 333 330 325 320 306 296 303 310 310 311 298 288 294 296 304 305 308 310 308 316 324 318 326 322 312 307 304 305 308 307 304 306 305 308 302 301 301 299 300 296 295 299 298 296 296 299 301 301 303 305 313 317 317 311 306 301 300 301 306 301 301 312 316 320 324 324 324 329 331 332 334 335 336
274 279 272 259 275 268 259 272 289 329 340 341 331 321 313 308 306 299 314 313 307 300 298 294 295 304 312 309 311 308 320 321 322 316 322 319 313 311 306 310 312 310 310 309 309 311 308 305 303 298 298 296 294 295 296 297 298 299 300 300 300 302 305 314 319 318 316 311 309 303 307 309 304 309 312 315 316 319 319 322 326 326 330 333 331
274 255 256 259 269 270 257 275 292 292 301 304 303 303 310 310 308 306 300 300 295 293 299 300 306 315 317 312 319 318 318 321 321 315 319 318 318 315 310 316 317 320 320 314 316 315 314 311 307 302 297 298 297 294 296 298 297 297 301 302 301 299 302 307 314 318 320 320 317 311 307 309 310 308 309 312 314 317 318 318 323 322 324 326 327
261 255 262 260 265 265 253 251 265 271 276 268 282 300 309 304 309 300 292 291 296 292 297 295 300 309 308 319 318 320 322 323 321 319 320 320 320 319 318 316 322 327 325 324 323 322 319 318 314 311 304 300 297 295 296 298 300 300 299 301 301 300 301 302 306 313 318 321 321 317 310 310 312 312 308 309 309 314 313 316 319 320 319 320 324
262 255 260 247 250 258 263 257 262 292 287 282 300 310 309 292 299 301 291 293 289 290 284 294 301 310 306 318 319 317 312 317 316 315 313 315 321 324 326 323 323 330 333 334 330 329 325 324 321 319 318 309 304 301 298 298 298 298 299 301 301 301 299 298 300 307 313 317 321 318 312 310 311 310 308 307 307 309 311 314 315 316 316 317 320
256 255 265 263 247 247 257 261 273 280 277 272 289 304 298 293 300 297 297 296 291 295 295 298 301 305 305 316 314 308 306 306 307 306 308 314 318 318 318 315 317 330 335 340 340 334 332 330 328 330 329 323 317 312 308 304 302 300 298 299 299 298 300 298 297 301 305 310 315 317 317 314 311 307 306 304 304 307 307 310 310 310 313 316 318
263 256 261 264 235 241 255 264 270 277 279 273 272 277 275 274 287 289 298 303 290 291 298 306 304 305 305 302 295 293 296 298 301 303 308 310 312 310 311 313 315 324 329 340 345 341 334 335 335 335 336 337 336 329 317 311 306 304 298 297 298 298 298 296 295 298 300 304 307 312 315 317 313 313 316 310 310 310 307 310 309 311 313 315 315
269 264 266 271 262 255 257 258 261 273 272 283 269 266 275 277 276 285 279 282 277 287 290 298 303 303 297 293 291 285 288 294 299 304 308 308 304 304 310 317 319 323 326 334 341 342 338 335 338 338 338 340 343 337 336 336 325 311 307 299 295 296 298 298 298 298 301 305 308 311 314 324 321 320 318 320 319 318 320 314 311 312 314 314 316
260 255 261 263 264 259 256 256 257 258 264 269 269 269 277 290 286 291 280 277 278 278 289 295 299 297 293 292 292 290 286 292 298 300 300 303 306 303 307 313 318 324 329 331 335 341 344 336 339 341 343 343 344 343 345 341 341 338 327 319 311 305 306 307 308 306 304 306 307 309 309 316 320 320 322 325 324 323 321 322 321 321 317 316 315
260 262 261 260 261 261 260 259 262 266 259 260 261 269 277 287 292 296 296 299 298 289 297 297 296 293 296 299 297 292 288 288 290 297 299 300 300 304 308 313 320 327 326 325 332 337 336 338 331 340 347 345 345 347 342 343 343 343 338 331 326 320 318 320 320 319 315 312 312 314 313 309 315 321 319 319 324 326 323 322 321 319 319 323 321
253 254 258 266 270 265 259 259 260 260 260 264 264 270 270 270 274 283 289 307 312 303 295 298 300 299 301 301 296 294 291 288 290 293 291 290 297 305 312 315 322 320 318 325 329 329 331 334 330 331 341 343 345 343 342 344 344 343 342 336 327 329 328 329 331 330 327 323 320 319 319 318 317 327 323 319 318 320 321 320 318 317 318 321 321
nan nan nan 253 244 263 263 260 256 264 266 268 265 266 264 269 271 275 293 295 296 297 294 301 304 303 300 298 298 296 293 286 284 284 285 289 296 306 310 308 306 308 318 325 324 325 323 324 326 322 326 333 343 336 340 343 344 343 342 336 330 332 335 337 337 336 334 333 332 329 327 325 323 319 322 322 318 316 312 306 306 306 308 315 317
240 242 245 248 256 258 260 254 254 255 269 273 271 270 266 273 272 275 279 278 286 293 285 293 304 305 300 299 297 295 292 283 279 282 286 292 296 296 299 296 297 307 313 314 316 317 316 316 320 321 309 318 327 333 332 338 339 339 338 333 331 330 333 338 338 337 338 338 336 334 334 333 327 322 321 325 319 317 311 307 308 310 312 309 306
nan 252 247 245 246 248 252 250 247 245 253 271 277 277 278 280 284 279 278 281 280 285 287 285 298 305 307 303 294 287 285 281 280 283 289 296 294 291 294 293 292 295 298 298 298 302 307 307 305 308 311 311 314 323 325 329 331 330 329 318 325 329 331 333 335 334 334 333 334 333 331 330 327 325 326 332 326 316 311 310 311 311 310 309 307
233 241 241 239 242 248 249 251 251 246 247 252 260 278 277 276 282 282 276 283 283 281 290 288 293 304 307 304 292 284 282 283 283 287 294 298 294 290 288 286 291 294 293 295 296 299 297 302 305 304 312 312 310 310 318 324 325 324 311 301 318 323 324 328 327 326 328 330 331 330 327 324 324 324 325 326 326 320 313 313 312 311 309 306 307
231 236 239 235 233 232 239 238 240 247 249 249 246 251 269 272 274 278 280 282 282 281 283 286 289 300 304 300 288 284 284 283 284 294 294 291 287 283 286 286 291 293 294 294 292 294 303 308 313 315 311 305 307 304 314 321 326 321 316 303 316 317 320 321 320 319 318 320 326 334 329 323 324 323 321 319 321 317 314 313 312 311 308 307 308
234 232 230 227 226 224 221 228 235 234 239 246 251 251 249 263 272 276 279 278 277 275 278 283 285 290 295 288 278 280 285 289 292 292 283 284 284 283 278 278 283 287 291 288 294 300 306 308 313 310 308 304 298 296 305 314 321 320 319 310 314 311 316 319 314 311 310 311 314 318 328 327 325 321 318 316 316 313 310 309 309 307 308 312 313
228 227 223 223 221 222 225 220 228 228 225 235 243 246 245 242 256 271 271 274 272 269 269 275 279 281 283 280 273 276 278 282 284 278 271 270 266 266 273 278 282 285 289 294 295 298 302 299 299 300 298 294 295 293 293 308 312 316 320 312 306 309 316 316 308 306 306 309 311 310 315 327 328 320 314 315 314 315 309 304 301 303 307 314 307
224 224 222 224 221 223 222 215 225 223 220 217 216 223 234 240 237 244 258 259 262 262 266 271 277 277 275 274 269 272 274 270 268 268 264 260 260 263 267 274 285 288 288 290 293 293 292 289 288 288 288 290 289 292 291 305 308 311 313 309 301 307 309 303 298 299 303 306 307 308 304 310 320 318 312 313 315 318 315 303 300 303 308 308 302
223 223 226 223 222 223 221 222 224 219 217 215 221 228 223 226 235 233 240 246 249 262 264 268 275 271 266 264 264 261 261 259 258 259 261 261 261 266 270 277 283 283 287 288 289 287 286 288 287 289 290 288 289 299 293 300 310 313 314 319 301 302 300 295 296 297 299 302 304 301 301 305 313 318 311 310 317 319 321 307 305 308 307 303 303
223 227 226 223 222 222 224 225 220 220 218 215 211 211 223 229 229 230 230 239 242 253 260 265 268 266 261 261 260 263 262 260 256 258 261 265 267 271 274 277 281 281 283 288 289 288 288 288 288 289 289 289 288 291 305 298 309 314 317 319 322 308 301 297 297 297 298 299 298 300 301 308 310 314 316 314 314 319 313 313 314 307 305 304 301
224 227 229 225 225 225 223 223 223 224 223 220 216 215 224 233 231 230 230 235 236 247 250 256 259 261 259 259 261 266 266 262 258 260 262 263 268 271 274 276 278 280 281 284 286 288 290 292 293 290 289 291 291 293 300 309 308 316 315 319 322 319 306 297 299 297 297 297 298 299 300 306 308 311 316 315 312 312 311 317 311 303 300 297 295
223 226 228 227 226 229 229 225 224 226 228 222 219 218 233 235 233 228 232 234 236 242 250 250 251 254 257 257 259 259 262 260 259 263 264 265 267 270 272 273 276 280 281 282 284 287 290 291 289 290 289 290 292 293 296 307 314 314 316 318 321 322 319 312 302 299 297 298 299 301 300 298 301 308 312 313 309 313 314 311 311 304 297 294 296
222 223 225 225 226 228 232 228 229 227 227 230 223 224 231 229 229 233 232 234 236 243 247 246 247 247 250 255 257 260 262 264 261 261 264 265 266 269 270 272 276 278 280 283 283 285 287 288 288 288 289 287 290 291 291 292 298 302 306 315 319 320 321 318 311 306 308 309 306 301 299 292 290 296 298 297 296 302 307 310 310 307 294 295 294
221 223 223 225 229 231 230 230 232 231 227 228 229 228 229 229 237 236 237 236 235 244 248 247 247 246 246 246 253 257 259 262 262 262 263 265 266 266 269 272 274 276 279 282 283 283 284 286 287 286 286 288 289 291 289 283 282 285 284 284 286 287 288 288 288 285 292 293 293 293 295 300 300 303 305 306 309 308 305 306 304 301 300 300 300
223 223 224 225 229 232 232 232 233 231 231 231 229 227 229 227 228 229 231 248 243 249 252 252 250 247 247 247 248 254 257 256 260 259 263 266 267 267 269 272 274 277 278 280 282 282 282 282 283 284 284 287 289 281 272 274 275 277 282 286 289 289 287 287 286 285 285 288 288 288 289 285 286 288 293 295 301 304 306 305 307 308 309 310 311
222 224 224 227 229 230 233 232 232 232 233 234 234 233 228 230 229 231 228 236 250 249 249 251 248 248 247 248 248 249 253 256 260 256 250 251 256 265 268 261 256 258 264 272 279 279 276 274 271 270 270 271 271 271 273 274 277 278 277 278 280 282 283 286 291 294 290 286 285 286 287 291 292 294 296 300 302 303 303 304 307 308 308 307 303
225 225 227 226 229 231 232 233 235 233 233 234 234 231 232 231 236 234 235 234 241 250 251 253 251 250 251 250 250 253 254 255 263 262 261 257 251 249 258 266 264 260 261 262 265 267 268 270 271 268 269 271 272 275 282 282 281 280 279 279 280 281 281 281 275 271 282 287 290 293 295 296 295 297 300 301 301 302 303 303 305 308 307 305 303
227 227 227 230 230 232 232 233 234 234 235 236 235 235 233 233 232 241 239 239 242 239 242 244 244 243 240 249 251 253 253 247 255 264 262 263 261 255 252 260 269 269 268 267 267 266 263 262 268 273 272 274 276 279 281 282 281 280 283 285 286 284 281 277 274 277 282 288 290 293 295 297 298 299 301 302 303 303 305 306 307 306 305 305 303